Tracking 25693 objects as of 1-Jul-2022
HD Live streaming from Space Station
objects crossing your sky now

STARLINK-1797

Track STARLINK-1797 now!
10-day predictions
STARLINK-1797 is classified as:


NORAD ID: 46698
Int'l Code: 2020-073AE
Perigee: 553.3 km
Apogee: 555.4 km
Inclination: 53.1 °
Period: 95.6 minutes
Semi major axis: 6925 km
RCS: Unknown
Launch date: October 18, 2020
Source: United States (US)
Launch site: AIR FORCE EASTERN TEST RANGE (AFETR)
aabbcc
Your satellite tracking list
Your tracking list is empty




NASA's NSSDC Master Catalog

Two Line Element Set (TLE):
1 46698U 20073AE  22182.34621434  .00000648  00000-0  62412-4 0  9994
2 46698  53.0538 170.0648 0001538  73.2676 286.8482 15.06407389 94052
Source of the keplerian elements: AFSPC